SUSat (42730 NORAD) Tracking and Keplerian Element Data

This shows tracking and keplerian element data for the satellite.

Feedback or suggestion? Click here.




ElementValue
Catalog42730
NameSUSat
Epoch Orbit6526
Epoch Day199.52974613
Epoch Year2018
RAAN197.0386
Inclination51.6337
Eccentricity0.00035
Argument of Perigee12.744
Mean Anonmoly347.3645
Mean Motion15.71325353
Decay Rate0.00020093
L11 42730U 98067MK 18199.52974613 .00020093 00000-0 15903-3 0 9996
L22 42730 51.6337 197.0386 0003500 12.7440 347.3645 15.71325353 65269

Live tracking and technical data element details for SUSat (NORAD 42730). SUSat can be tracked NOW for your location showing map with azimuth and elevation plus other details from your city location.

Track the satellite on the map from your city or location and see movement details for azimuth, elevation, latitude, longitude, range, height, and movement on the map or in text.







IsCatalogInMostPopularTable: catalog: 42730, numindb: 97
Update: records affected: 1



GetName: 42730 SUSat

Hit Count: updated at: Mon, 23 Jul 2018 07:38:39 GMT